Location: Bastrop State Park
(30.1090°N, 97.2819°W)
Time: 02:58:14
(UTC-05:00)

ISS - Visible Passes

Search period start: 01 September 2015 00:00
Search period end: 11 September 2015 00:00
Orbit: 400 x 402 km, 51.6° (Epoch: 01 September)

Date Brightness Start Highest point End Pass type
(mag) Time Alt. Az. Time Alt. Az. Time Alt. Az.
05 Sep -0.4 06:05:21 10° SSE 06:06:47 13° SE 06:08:22 10° E visible
07 Sep -2.0 05:54:30 19° S 05:56:20 35° SE 05:59:22 10° ENE visible
08 Sep -0.4 05:03:54 14° ESE 05:03:54 14° ESE 05:05:09 10° E visible
08 Sep -2.2 06:36:31 11° WSW 06:39:20 30° NW 06:42:15 10° NNE visible
09 Sep -3.5 05:45:47 69° WNW 05:45:56 71° NW 05:49:11 10° NE visible
10 Sep -0.3 04:54:56 16° ENE 04:54:56 16° ENE 04:55:43 10° ENE visible
10 Sep -1.1 06:27:32 10° WNW 06:29:12 14° NW 06:30:55 10° N visible
